Data supplied by UK-AIR on 21/3/2023
All Data GMT hour ending 
Status: R =Ratified P=Provisional,P*=As supplied
,,Coventry Binley Road,,,,,,,,,,,,,,,,,,,,,,,
Date,time,"PM<sub>10</sub> particulate matter (Hourly measured)",status,unit,"Nitric oxide",status,unit,"Nitrogen dioxide",status,unit,"Nitrogen oxides as nitrogen dioxide",status,unit
 
01-01-2022,01:00,18.358,R,ugm-3 (Ref.eq),6.81704,R,ugm-3,14.39499,R,ugm-3,24.84763,R,ugm-3
01-01-2022,02:00,13.527,R,ugm-3 (Ref.eq),8.33676,R,ugm-3,9.54015,R,ugm-3,22.32301,R,ugm-3
01-01-2022,03:00,9.662,R,ugm-3 (Ref.eq),6.48053,R,ugm-3,8.79871,R,ugm-3,18.73538,R,ugm-3
01-01-2022,04:00,18.358,R,ugm-3 (Ref.eq),4.62430,R,ugm-3,10.34936,R,ugm-3,17.43985,R,ugm-3
01-01-2022,05:00,18.358,R,ugm-3 (Ref.eq),5.24304,R,ugm-3,9.40063,R,ugm-3,17.43985,R,ugm-3
01-01-2022,06:00,16.425,R,ugm-3 (Ref.eq),4.10325,R,ugm-3,10.35104,R,ugm-3,16.64260,R,ugm-3
01-01-2022,07:00,16.425,R,ugm-3 (Ref.eq),3.84273,R,ugm-3,10.05291,R,ugm-3,15.94501,R,ugm-3
01-01-2022,08:00,15.459,R,ugm-3 (Ref.eq),3.22398,R,ugm-3,13.19408,R,ugm-3,18.13744,R,ugm-3
01-01-2022,09:00,13.527,R,ugm-3 (Ref.eq),2.14932,R,ugm-3,6.91919,R,ugm-3,10.21477,R,ugm-3
01-01-2022,10:00,15.459,R,ugm-3 (Ref.eq),2.60524,R,ugm-3,5.92116,R,ugm-3,9.91580,R,ugm-3
01-01-2022,11:00,15.459,R,ugm-3 (Ref.eq),2.60524,R,ugm-3,7.61532,R,ugm-3,11.60996,R,ugm-3
01-01-2022,12:00,17.392,R,ugm-3 (Ref.eq),5.73152,R,ugm-3,10.19631,R,ugm-3,18.98452,R,ugm-3
01-01-2022,13:00,21.256,R,ugm-3 (Ref.eq),7.00158,R,ugm-3,8.19909,R,ugm-3,18.93470,R,ugm-3
01-01-2022,14:00,24.155,R,ugm-3 (Ref.eq),8.10880,R,ugm-3,10.43779,R,ugm-3,22.87112,R,ugm-3
01-01-2022,15:00,28.020,R,ugm-3 (Ref.eq),9.11833,R,ugm-3,13.07544,R,ugm-3,27.05668,R,ugm-3
01-01-2022,16:00,28.020,R,ugm-3 (Ref.eq),11.98409,R,ugm-3,12.86689,R,ugm-3,31.24225,R,ugm-3
01-01-2022,17:00,27.054,R,ugm-3 (Ref.eq),11.20252,R,ugm-3,17.60308,R,ugm-3,34.78004,R,ugm-3
01-01-2022,18:00,35.749,R,ugm-3 (Ref.eq),15.20808,R,ugm-3,21.37712,R,ugm-3,44.69584,R,ugm-3
01-01-2022,19:00,36.716,R,ugm-3 (Ref.eq),12.99362,R,ugm-3,18.44439,R,ugm-3,38.36767,R,ugm-3
01-01-2022,20:00,31.885,R,ugm-3 (Ref.eq),9.99760,R,ugm-3,17.10868,R,ugm-3,32.43812,R,ugm-3
01-01-2022,21:00,28.020,R,ugm-3 (Ref.eq),8.07624,R,ugm-3,13.17845,R,ugm-3,25.56184,R,ugm-3
01-01-2022,22:00,30.918,R,ugm-3 (Ref.eq),10.29069,R,ugm-3,16.55963,R,ugm-3,32.33846,R,ugm-3
01-01-2022,23:00,23.189,R,ugm-3 (Ref.eq),7.75058,R,ugm-3,15.52142,R,ugm-3,27.40548,R,ugm-3
01-01-2022,24:00,24.155,R,ugm-3 (Ref.eq),5.82922,R,ugm-3,9.24926,R,ugm-3,18.18727,R,ugm-3
02-01-2022,01:00,24.155,R,ugm-3 (Ref.eq),4.04552,R,ugm-3,9.23795,R,ugm-3,15.44100,R,ugm-3
02-01-2022,02:00,23.189,R,ugm-3 (Ref.eq),2.56651,R,ugm-3,7.57893,R,ugm-3,11.51419,R,ugm-3
02-01-2022,03:00,22.223,R,ugm-3 (Ref.eq),1.76176,R,ugm-3,3.63813,R,ugm-3,6.33946,R,ugm-3
02-01-2022,04:00,17.392,R,ugm-3 (Ref.eq),1.27238,R,ugm-3,4.03908,R,ugm-3,5.99004,R,ugm-3
02-01-2022,05:00,13.527,R,ugm-3 (Ref.eq),1.23976,R,ugm-3,3.68977,R,ugm-3,5.59071,R,ugm-3
02-01-2022,06:00,8.696,R,ugm-3 (Ref.eq),0.94613,R,ugm-3,4.68908,R,ugm-3,6.13979,R,ugm-3
02-01-2022,07:00,4.831,R,ugm-3 (Ref.eq),2.21851,R,ugm-3,5.28389,R,ugm-3,8.68556,R,ugm-3
02-01-2022,08:00,4.831,R,ugm-3 (Ref.eq),4.01290,R,ugm-3,9.82042,R,ugm-3,15.97345,R,ugm-3
02-01-2022,09:00,3.865,R,ugm-3 (Ref.eq),7.40592,R,ugm-3,19.24355,R,ugm-3,30.59913,R,ugm-3
02-01-2022,10:00,8.696,R,ugm-3 (Ref.eq),4.04552,R,ugm-3,10.76874,R,ugm-3,16.97179,R,ugm-3
02-01-2022,11:00,8.696,R,ugm-3 (Ref.eq),8.15630,R,ugm-3,8.90826,R,ugm-3,21.41440,R,ugm-3
02-01-2022,12:00,6.763,R,ugm-3 (Ref.eq),6.75341,R,ugm-3,12.10757,R,ugm-3,22.46266,R,ugm-3
02-01-2022,13:00,8.696,R,ugm-3 (Ref.eq),7.63429,R,ugm-3,11.85508,R,ugm-3,23.56083,R,ugm-3
02-01-2022,14:00,8.696,R,ugm-3 (Ref.eq),12.46282,R,ugm-3,18.07879,R,ugm-3,37.18818,R,ugm-3
02-01-2022,15:00,13.527,R,ugm-3 (Ref.eq),17.61760,R,ugm-3,24.45117,R,ugm-3,51.46445,R,ugm-3
02-01-2022,16:00,8.696,R,ugm-3 (Ref.eq),18.82473,R,ugm-3,22.45051,R,ugm-3,51.31470,R,ugm-3
02-01-2022,17:00,10.628,R,ugm-3 (Ref.eq),18.00910,R,ugm-3,28.04391,R,ugm-3,55.65748,R,ugm-3
02-01-2022,18:00,12.561,R,ugm-3 (Ref.eq),16.05159,R,ugm-3,18.91555,R,ugm-3,43.52764,R,ugm-3
02-01-2022,19:00,15.459,R,ugm-3 (Ref.eq),12.52807,R,ugm-3,14.48455,R,ugm-3,33.69399,R,ugm-3
02-01-2022,20:00,13.527,R,ugm-3 (Ref.eq),10.99469,R,ugm-3,15.33819,R,ugm-3,32.19648,R,ugm-3
02-01-2022,21:00,9.662,R,ugm-3 (Ref.eq),13.44158,R,ugm-3,16.12880,R,ugm-3,36.73893,R,ugm-3
02-01-2022,22:00,18.358,R,ugm-3 (Ref.eq),9.03718,R,ugm-3,12.59921,R,ugm-3,26.45602,R,ugm-3
02-01-2022,23:00,14.493,R,ugm-3 (Ref.eq),5.41578,R,ugm-3,9.91563,R,ugm-3,18.21971,R,ugm-3
02-01-2022,24:00,18.358,R,ugm-3 (Ref.eq),4.66540,R,ugm-3,5.02624,R,ugm-3,12.17975,R,ugm-3
03-01-2022,01:00,17.392,R,ugm-3 (Ref.eq),5.14243,R,ugm-3,8.85037,R,ugm-3,16.73531,R,ugm-3
03-01-2022,02:00,18.358,R,ugm-3 (Ref.eq),1.04592,R,ugm-3,1.66334,R,ugm-3,3.26705,R,ugm-3
03-01-2022,03:00,13.527,R,ugm-3 (Ref.eq),1.14397,R,ugm-3,2.54644,R,ugm-3,4.30051,R,ugm-3
03-01-2022,04:00,17.392,R,ugm-3 (Ref.eq),0.81712,R,ugm-3,1.14738,R,ugm-3,2.40028,R,ugm-3
03-01-2022,05:00,11.594,R,ugm-3 (Ref.eq),0.81712,R,ugm-3,1.64744,R,ugm-3,2.90034,R,ugm-3
03-01-2022,06:00,14.493,R,ugm-3 (Ref.eq),1.56888,R,ugm-3,2.39499,R,ugm-3,4.80057,R,ugm-3
03-01-2022,07:00,19.324,R,ugm-3 (Ref.eq),1.24203,R,ugm-3,4.84638,R,ugm-3,6.75080,R,ugm-3
03-01-2022,08:00,23.189,R,ugm-3 (Ref.eq),3.79145,R,ugm-3,6.93803,R,ugm-3,12.75150,R,ugm-3
03-01-2022,09:00,18.358,R,ugm-3 (Ref.eq),3.36655,R,ugm-3,9.33975,R,ugm-3,14.50171,R,ugm-3
03-01-2022,10:00,14.493,R,ugm-3 (Ref.eq),5.19690,R,ugm-3,8.18344,R,ugm-3,16.15191,R,ugm-3
03-01-2022,11:00,18.358,R,ugm-3 (Ref.eq),7.05994,R,ugm-3,14.37788,R,ugm-3,25.20297,R,ugm-3
03-01-2022,12:00,21.256,R,ugm-3 (Ref.eq),13.82571,R,ugm-3,17.35542,R,ugm-3,38.55455,R,ugm-3
03-01-2022,13:00,20.290,R,ugm-3 (Ref.eq),22.16036,R,ugm-3,27.87855,R,ugm-3,61.85730,R,ugm-3
03-01-2022,14:00,23.189,R,ugm-3 (Ref.eq),17.25763,R,ugm-3,21.79437,R,ugm-3,48.25569,R,ugm-3
03-01-2022,15:00,6.763,R,ugm-3 (Ref.eq),23.23897,R,ugm-3,31.07529,R,ugm-3,66.70787,R,ugm-3
03-01-2022,16:00,9.662,R,ugm-3 (Ref.eq),23.14091,R,ugm-3,33.32588,R,ugm-3,68.80812,R,ugm-3
03-01-2022,17:00,15.459,R,ugm-3 (Ref.eq),24.41562,R,ugm-3,43.77282,R,ugm-3,81.20958,R,ugm-3
03-01-2022,18:00,15.459,R,ugm-3 (Ref.eq),36.67246,R,ugm-3,57.78313,R,ugm-3,114.01345,R,ugm-3
03-01-2022,19:00,19.324,R,ugm-3 (Ref.eq),33.01175,R,ugm-3,46.64416,R,ugm-3,97.26147,R,ugm-3
03-01-2022,20:00,16.425,R,ugm-3 (Ref.eq),21.53935,R,ugm-3,30.03090,R,ugm-3,63.05744,R,ugm-3
03-01-2022,21:00,19.324,R,ugm-3 (Ref.eq),17.71522,R,ugm-3,26.39336,R,ugm-3,53.55632,R,ugm-3
03-01-2022,22:00,20.290,R,ugm-3 (Ref.eq),13.66229,R,ugm-3,22.85662,R,ugm-3,43.80517,R,ugm-3
03-01-2022,23:00,16.425,R,ugm-3 (Ref.eq),12.28952,R,ugm-3,18.86078,R,ugm-3,37.70445,R,ugm-3
03-01-2022,24:00,19.324,R,ugm-3 (Ref.eq),6.79846,R,ugm-3,15.77893,R,ugm-3,26.20309,R,ugm-3
04-01-2022,01:00,12.561,R,ugm-3 (Ref.eq),8.12067,R,ugm-3,14.86684,R,ugm-3,27.31835,R,ugm-3
04-01-2022,02:00,15.459,R,ugm-3 (Ref.eq),4.19131,R,ugm-3,11.13998,R,ugm-3,17.56657,R,ugm-3
04-01-2022,03:00,12.561,R,ugm-3 (Ref.eq),2.55408,R,ugm-3,9.90996,R,ugm-3,13.82616,R,ugm-3
04-01-2022,04:00,14.493,R,ugm-3 (Ref.eq),3.04525,R,ugm-3,17.82324,R,ugm-3,22.49256,R,ugm-3
04-01-2022,05:00,9.662,R,ugm-3 (Ref.eq),4.02759,R,ugm-3,15.46540,R,ugm-3,21.64094,R,ugm-3
04-01-2022,06:00,9.662,R,ugm-3 (Ref.eq),3.70014,R,ugm-3,15.91738,R,ugm-3,21.59085,R,ugm-3
04-01-2022,07:00,7.730,R,ugm-3 (Ref.eq),3.30721,R,ugm-3,10.60869,R,ugm-3,15.67967,R,ugm-3
04-01-2022,08:00,4.831,R,ugm-3 (Ref.eq),2.97976,R,ugm-3,14.81778,R,ugm-3,19.38668,R,ugm-3
04-01-2022,09:00,1.932,R,ugm-3 (Ref.eq),3.73289,R,ugm-3,23.58177,R,ugm-3,29.30544,R,ugm-3
04-01-2022,10:00,9.662,R,ugm-3 (Ref.eq),13.39255,R,ugm-3,30.76210,R,ugm-3,51.29705,R,ugm-3
04-01-2022,11:00,5.797,R,ugm-3 (Ref.eq),9.88887,R,ugm-3,24.01139,R,ugm-3,39.17412,R,ugm-3
04-01-2022,12:00,5.797,R,ugm-3 (Ref.eq),8.93928,R,ugm-3,19.85680,R,ugm-3,33.56350,R,ugm-3
04-01-2022,13:00,9.662,R,ugm-3 (Ref.eq),10.08534,R,ugm-3,21.60616,R,ugm-3,37.07014,R,ugm-3
04-01-2022,14:00,9.662,R,ugm-3 (Ref.eq),19.38481,R,ugm-3,20.57219,R,ugm-3,50.29516,R,ugm-3
04-01-2022,15:00,12.561,R,ugm-3 (Ref.eq),11.03494,R,ugm-3,18.59720,R,ugm-3,35.51720,R,ugm-3
04-01-2022,16:00,22.223,R,ugm-3 (Ref.eq),26.06472,R,ugm-3,37.43109,R,ugm-3,77.39643,R,ugm-3
04-01-2022,17:00,28.020,R,ugm-3 (Ref.eq),37.59082,R,ugm-3,42.10025,R,ugm-3,99.73870,R,ugm-3
04-01-2022,18:00,28.986,R,ugm-3 (Ref.eq),29.96132,R,ugm-3,44.23054,R,ugm-3,90.17060,R,ugm-3
04-01-2022,19:00,29.952,R,ugm-3 (Ref.eq),30.58347,R,ugm-3,51.94299,R,ugm-3,98.83699,R,ugm-3
04-01-2022,20:00,20.290,R,ugm-3 (Ref.eq),27.21078,R,ugm-3,38.62941,R,ugm-3,80.35202,R,ugm-3
04-01-2022,21:00,8.696,R,ugm-3 (Ref.eq),19.02462,R,ugm-3,23.77950,R,ugm-3,52.95018,R,ugm-3
04-01-2022,22:00,6.763,R,ugm-3 (Ref.eq),9.72515,R,ugm-3,17.70001,R,ugm-3,32.61170,R,ugm-3
04-01-2022,23:00,8.696,R,ugm-3 (Ref.eq),13.29432,R,ugm-3,23.59888,R,ugm-3,43.98321,R,ugm-3
04-01-2022,24:00,7.730,R,ugm-3 (Ref.eq),7.33479,R,ugm-3,18.40958,R,ugm-3,29.65611,R,ugm-3
05-01-2022,01:00,6.763,R,ugm-3 (Ref.eq),5.94852,R,ugm-3,15.36869,R,ugm-3,24.48962,R,ugm-3
05-01-2022,02:00,7.730,R,ugm-3 (Ref.eq),4.63635,R,ugm-3,13.76744,R,ugm-3,20.87640,R,ugm-3
05-01-2022,03:00,15.459,R,ugm-3 (Ref.eq),1.86985,R,ugm-3,7.97261,R,ugm-3,10.83967,R,ugm-3
05-01-2022,04:00,9.662,R,ugm-3 (Ref.eq),0.72170,R,ugm-3,3.91178,R,ugm-3,5.01837,R,ugm-3
05-01-2022,05:00,7.730,R,ugm-3 (Ref.eq),2.03387,R,ugm-3,6.66726,R,ugm-3,9.78581,R,ugm-3
05-01-2022,06:00,14.493,R,ugm-3 (Ref.eq),5.24869,R,ugm-3,16.94358,R,ugm-3,24.99146,R,ugm-3
05-01-2022,07:00,12.561,R,ugm-3 (Ref.eq),11.38310,R,ugm-3,28.21328,R,ugm-3,45.66713,R,ugm-3
05-01-2022,08:00,10.628,R,ugm-3 (Ref.eq),19.71540,R,ugm-3,44.39323,R,ugm-3,74.62309,R,ugm-3
05-01-2022,09:00,14.493,R,ugm-3 (Ref.eq),29.78633,R,ugm-3,50.98198,R,ugm-3,96.65372,R,ugm-3
05-01-2022,10:00,16.425,R,ugm-3 (Ref.eq),35.95355,R,ugm-3,56.07898,R,ugm-3,111.20698,R,ugm-3
05-01-2022,11:00,15.459,R,ugm-3 (Ref.eq),24.83288,R,ugm-3,42.01656,R,ugm-3,80.09311,R,ugm-3
05-01-2022,12:00,17.392,R,ugm-3 (Ref.eq),20.92916,R,ugm-3,30.28735,R,ugm-3,62.37828,R,ugm-3
05-01-2022,13:00,16.425,R,ugm-3 (Ref.eq),20.30588,R,ugm-3,28.38256,R,ugm-3,59.51782,R,ugm-3
05-01-2022,14:00,20.290,R,ugm-3 (Ref.eq),15.22121,R,ugm-3,24.98800,R,ugm-3,48.32686,R,ugm-3
05-01-2022,15:00,30.918,R,ugm-3 (Ref.eq),22.50377,R,ugm-3,27.72243,R,ugm-3,62.22773,R,ugm-3
05-01-2022,16:00,27.054,R,ugm-3 (Ref.eq),20.73234,R,ugm-3,35.35659,R,ugm-3,67.14573,R,ugm-3
05-01-2022,17:00,28.986,R,ugm-3 (Ref.eq),44.22024,R,ugm-3,51.38276,R,ugm-3,119.18618,R,ugm-3
05-01-2022,18:00,22.223,R,ugm-3 (Ref.eq),41.10383,R,ugm-3,64.54186,R,ugm-3,127.56685,R,ugm-3
05-01-2022,19:00,24.155,R,ugm-3 (Ref.eq),41.46468,R,ugm-3,62.03141,R,ugm-3,125.60969,R,ugm-3
05-01-2022,20:00,27.054,R,ugm-3 (Ref.eq),61.27849,R,ugm-3,64.92241,R,ugm-3,158.88145,R,ugm-3
05-01-2022,21:00,26.087,R,ugm-3 (Ref.eq),60.22875,R,ugm-3,66.68254,R,ugm-3,159.03200,R,ugm-3
05-01-2022,22:00,23.189,R,ugm-3 (Ref.eq),37.00329,R,ugm-3,65.76072,R,ugm-3,122.49830,R,ugm-3
05-01-2022,23:00,28.020,R,ugm-3 (Ref.eq),36.80646,R,ugm-3,65.76141,R,ugm-3,122.19720,R,ugm-3
05-01-2022,24:00,31.885,R,ugm-3 (Ref.eq),98.64262,R,ugm-3,67.70137,R,ugm-3,218.95129,R,ugm-3
06-01-2022,01:00,26.087,R,ugm-3 (Ref.eq),78.82989,R,ugm-3,59.37297,R,ugm-3,180.24379,R,ugm-3
06-01-2022,02:00,25.121,R,ugm-3 (Ref.eq),75.98168,R,ugm-3,51.87586,R,ugm-3,168.37947,R,ugm-3
06-01-2022,03:00,23.189,R,ugm-3 (Ref.eq),57.41349,R,ugm-3,46.19487,R,ugm-3,134.22766,R,ugm-3
06-01-2022,04:00,21.256,R,ugm-3 (Ref.eq),16.13625,R,ugm-3,37.99822,R,ugm-3,62.74012,R,ugm-3
06-01-2022,05:00,15.459,R,ugm-3 (Ref.eq),2.85917,R,ugm-3,35.68321,R,ugm-3,40.06721,R,ugm-3
06-01-2022,06:00,20.290,R,ugm-3 (Ref.eq),12.58693,R,ugm-3,40.17272,R,ugm-3,59.47241,R,ugm-3
06-01-2022,07:00,24.155,R,ugm-3 (Ref.eq),59.45106,R,ugm-3,49.00280,R,ugm-3,140.15982,R,ugm-3
06-01-2022,08:00,20.290,R,ugm-3 (Ref.eq),64.84076,R,ugm-3,52.85438,R,ugm-3,152.27550,R,ugm-3
06-01-2022,09:00,20.290,R,ugm-3 (Ref.eq),80.38546,R,ugm-3,59.63549,R,ugm-3,182.89147,R,ugm-3
06-01-2022,10:00,13.527,R,ugm-3 (Ref.eq),34.34293,R,ugm-3,41.15012,R,ugm-3,93.80855,R,ugm-3
06-01-2022,11:00,11.594,R,ugm-3 (Ref.eq),23.59639,R,ugm-3,32.74302,R,ugm-3,68.92364,R,ugm-3
06-01-2022,12:00,12.561,R,ugm-3 (Ref.eq),23.03770,R,ugm-3,30.93522,R,ugm-3,66.25920,R,ugm-3
06-01-2022,13:00,12.561,R,ugm-3 (Ref.eq),17.77945,R,ugm-3,26.73126,R,ugm-3,53.99270,R,ugm-3
06-01-2022,14:00,8.696,R,ugm-3 (Ref.eq),17.25362,R,ugm-3,26.33097,R,ugm-3,52.78616,R,ugm-3
06-01-2022,15:00,12.561,R,ugm-3 (Ref.eq),27.57294,R,ugm-3,34.43797,R,ugm-3,76.71589,R,ugm-3
06-01-2022,16:00,12.561,R,ugm-3 (Ref.eq),27.40861,R,ugm-3,35.39374,R,ugm-3,77.41970,R,ugm-3
06-01-2022,17:00,8.696,R,ugm-3 (Ref.eq),11.40382,R,ugm-3,21.27450,R,ugm-3,38.76012,R,ugm-3
06-01-2022,18:00,9.662,R,ugm-3 (Ref.eq),14.69023,R,ugm-3,20.00586,R,ugm-3,42.53056,R,ugm-3
06-01-2022,19:00,3.865,R,ugm-3 (Ref.eq),13.11276,R,ugm-3,20.06181,R,ugm-3,40.16775,R,ugm-3
06-01-2022,20:00,2.899,R,ugm-3 (Ref.eq),16.26770,R,ugm-3,29.55196,R,ugm-3,54.49543,R,ugm-3
06-01-2022,21:00,16.425,R,ugm-3 (Ref.eq),15.47897,R,ugm-3,22.01392,R,ugm-3,45.74800,R,ugm-3
06-01-2022,22:00,17.392,R,ugm-3 (Ref.eq),17.02358,R,ugm-3,28.39297,R,ugm-3,54.49543,R,ugm-3
06-01-2022,23:00,17.392,R,ugm-3 (Ref.eq),8.38033,R,ugm-3,13.34233,R,ugm-3,26.19199,R,ugm-3
06-01-2022,24:00,12.561,R,ugm-3 (Ref.eq),6.11271,R,ugm-3,13.85322,R,ugm-3,23.22591,R,ugm-3
07-01-2022,01:00,10.628,R,ugm-3 (Ref.eq),3.24848,R,ugm-3,8.78452,R,ugm-3,13.76545,R,ugm-3
07-01-2022,02:00,10.628,R,ugm-3 (Ref.eq),2.19492,R,ugm-3,5.16237,R,ugm-3,8.52787,R,ugm-3
07-01-2022,03:00,10.628,R,ugm-3 (Ref.eq),1.18526,R,ugm-3,3.57131,R,ugm-3,5.38867,R,ugm-3
07-01-2022,04:00,10.628,R,ugm-3 (Ref.eq),1.21818,R,ugm-3,2.51360,R,ugm-3,4.38144,R,ugm-3
07-01-2022,05:00,7.730,R,ugm-3 (Ref.eq),1.61326,R,ugm-3,3.51937,R,ugm-3,5.99301,R,ugm-3
07-01-2022,06:00,7.730,R,ugm-3 (Ref.eq),6.42013,R,ugm-3,7.88315,R,ugm-3,17.72722,R,ugm-3
07-01-2022,07:00,9.662,R,ugm-3 (Ref.eq),8.75772,R,ugm-3,17.04034,R,ugm-3,30.46865,R,ugm-3
07-01-2022,08:00,7.730,R,ugm-3 (Ref.eq),17.64714,R,ugm-3,21.28839,R,ugm-3,48.34695,R,ugm-3
07-01-2022,09:00,12.561,R,ugm-3 (Ref.eq),37.10508,R,ugm-3,38.28940,R,ugm-3,95.18307,R,ugm-3
07-01-2022,10:00,7.730,R,ugm-3 (Ref.eq),24.72574,R,ugm-3,36.67297,R,ugm-3,74.58525,R,ugm-3
07-01-2022,11:00,10.628,R,ugm-3 (Ref.eq),19.82011,R,ugm-3,40.26666,R,ugm-3,70.65706,R,ugm-3
07-01-2022,12:00,6.763,R,ugm-3 (Ref.eq),24.56113,R,ugm-3,32.99719,R,ugm-3,70.65706,R,ugm-3
07-01-2022,13:00,6.763,R,ugm-3 (Ref.eq),26.89871,R,ugm-3,36.01029,R,ugm-3,77.25440,R,ugm-3
07-01-2022,14:00,15.459,R,ugm-3 (Ref.eq),34.01025,R,ugm-3,37.54536,R,ugm-3,89.69367,R,ugm-3
07-01-2022,15:00,12.561,R,ugm-3 (Ref.eq),29.49969,R,ugm-3,43.60530,R,ugm-3,88.83753,R,ugm-3
07-01-2022,16:00,13.527,R,ugm-3 (Ref.eq),26.24024,R,ugm-3,45.68210,R,ugm-3,85.91657,R,ugm-3
07-01-2022,17:00,12.561,R,ugm-3 (Ref.eq),39.11343,R,ugm-3,52.58466,R,ugm-3,112.55775,R,ugm-3
07-01-2022,18:00,14.493,R,ugm-3 (Ref.eq),46.15911,R,ugm-3,65.35057,R,ugm-3,136.12689,R,ugm-3
07-01-2022,19:00,14.493,R,ugm-3 (Ref.eq),43.52521,R,ugm-3,56.54700,R,ugm-3,123.28473,R,ugm-3
07-01-2022,20:00,11.594,R,ugm-3 (Ref.eq),37.30262,R,ugm-3,54.55541,R,ugm-3,111.75197,R,ugm-3
07-01-2022,21:00,14.493,R,ugm-3 (Ref.eq),41.74733,R,ugm-3,43.91282,R,ugm-3,107.92450,R,ugm-3
07-01-2022,22:00,9.662,R,ugm-3 (Ref.eq),32.42991,R,ugm-3,38.00442,R,ugm-3,87.72958,R,ugm-3
07-01-2022,23:00,9.662,R,ugm-3 (Ref.eq),17.74591,R,ugm-3,25.26658,R,ugm-3,52.47659,R,ugm-3
07-01-2022,24:00,9.662,R,ugm-3 (Ref.eq),12.80734,R,ugm-3,21.65870,R,ugm-3,41.29636,R,ugm-3
08-01-2022,01:00,7.730,R,ugm-3 (Ref.eq),16.00798,R,ugm-3,22.54171,R,ugm-3,47.08694,R,ugm-3
08-01-2022,02:00,12.561,R,ugm-3 (Ref.eq),6.24487,R,ugm-3,16.52428,R,ugm-3,26.09962,R,ugm-3
08-01-2022,03:00,10.628,R,ugm-3 (Ref.eq),4.51874,R,ugm-3,16.17760,R,ugm-3,23.10623,R,ugm-3
08-01-2022,04:00,10.628,R,ugm-3 (Ref.eq),3.46327,R,ugm-3,12.09508,R,ugm-3,17.40535,R,ugm-3
08-01-2022,05:00,7.730,R,ugm-3 (Ref.eq),2.14393,R,ugm-3,7.60995,R,ugm-3,10.89726,R,ugm-3
08-01-2022,06:00,5.797,R,ugm-3 (Ref.eq),3.16641,R,ugm-3,9.01873,R,ugm-3,13.87383,R,ugm-3
08-01-2022,07:00,4.831,R,ugm-3 (Ref.eq),6.39880,R,ugm-3,12.43723,R,ugm-3,22.24858,R,ugm-3
08-01-2022,08:00,4.831,R,ugm-3 (Ref.eq),8.77360,R,ugm-3,12.98328,R,ugm-3,26.43595,R,ugm-3
08-01-2022,09:00,5.797,R,ugm-3 (Ref.eq),9.96101,R,ugm-3,14.94639,R,ugm-3,30.21972,R,ugm-3
08-01-2022,10:00,2.899,R,ugm-3 (Ref.eq),11.87405,R,ugm-3,17.15903,R,ugm-3,35.36565,R,ugm-3
08-01-2022,11:00,0.000,R,ugm-3 (Ref.eq),13.39129,R,ugm-3,17.96054,R,ugm-3,38.49357,R,ugm-3
08-01-2022,12:00,0.966,R,ugm-3 (Ref.eq),14.08394,R,ugm-3,21.69127,R,ugm-3,43.28635,R,ugm-3
08-01-2022,13:00,2.899,R,ugm-3 (Ref.eq),15.63417,R,ugm-3,18.91069,R,ugm-3,42.88274,R,ugm-3
08-01-2022,14:00,8.696,R,ugm-3 (Ref.eq),14.41378,R,ugm-3,25.72605,R,ugm-3,47.82687,R,ugm-3
08-01-2022,15:00,9.662,R,ugm-3 (Ref.eq),31.07044,R,ugm-3,46.19687,R,ugm-3,93.83754,R,ugm-3
08-01-2022,16:00,21.256,R,ugm-3 (Ref.eq),51.85003,R,ugm-3,71.39455,R,ugm-3,150.89681,R,ugm-3
08-01-2022,17:00,21.256,R,ugm-3 (Ref.eq),57.29230,R,ugm-3,69.86063,R,ugm-3,157.70760,R,ugm-3
08-01-2022,18:00,28.020,R,ugm-3 (Ref.eq),29.19038,R,ugm-3,43.27780,R,ugm-3,88.03575,R,ugm-3
08-01-2022,19:00,26.087,R,ugm-3 (Ref.eq),21.96700,R,ugm-3,40.07607,R,ugm-3,73.75832,R,ugm-3
08-01-2022,20:00,21.256,R,ugm-3 (Ref.eq),20.58169,R,ugm-3,37.76055,R,ugm-3,69.31869,R,ugm-3
08-01-2022,21:00,19.324,R,ugm-3 (Ref.eq),23.78109,R,ugm-3,40.92692,R,ugm-3,77.39074,R,ugm-3
08-01-2022,22:00,20.290,R,ugm-3 (Ref.eq),26.98048,R,ugm-3,38.08971,R,ugm-3,79.45920,R,ugm-3
08-01-2022,23:00,15.459,R,ugm-3 (Ref.eq),18.00898,R,ugm-3,34.08732,R,ugm-3,61.70070,R,ugm-3
08-01-2022,24:00,15.459,R,ugm-3 (Ref.eq),14.64466,R,ugm-3,23.40447,R,ugm-3,45.85931,R,ugm-3
09-01-2022,01:00,9.662,R,ugm-3 (Ref.eq),12.20395,R,ugm-3,14.37384,R,ugm-3,33.08631,R,ugm-3
09-01-2022,02:00,6.763,R,ugm-3 (Ref.eq),7.18139,R,ugm-3,14.05612,R,ugm-3,25.06743,R,ugm-3
09-01-2022,03:00,11.594,R,ugm-3 (Ref.eq),8.35993,R,ugm-3,14.67493,R,ugm-3,27.49331,R,ugm-3
09-01-2022,04:00,8.696,R,ugm-3 (Ref.eq),5.05561,R,ugm-3,11.30144,R,ugm-3,19.05327,R,ugm-3
09-01-2022,05:00,9.662,R,ugm-3 (Ref.eq),2.57737,R,ugm-3,9.44097,R,ugm-3,13.39288,R,ugm-3
09-01-2022,06:00,10.628,R,ugm-3 (Ref.eq),3.40345,R,ugm-3,8.73026,R,ugm-3,13.94881,R,ugm-3
09-01-2022,07:00,10.628,R,ugm-3 (Ref.eq),16.02595,R,ugm-3,34.81074,R,ugm-3,59.38352,R,ugm-3
09-01-2022,08:00,11.594,R,ugm-3 (Ref.eq),10.60687,R,ugm-3,20.22565,R,ugm-3,36.48928,R,ugm-3
09-01-2022,09:00,15.459,R,ugm-3 (Ref.eq),22.66763,R,ugm-3,35.18966,R,ugm-3,69.94621,R,ugm-3
09-01-2022,10:00,8.696,R,ugm-3 (Ref.eq),27.78932,R,ugm-3,40.83046,R,ugm-3,83.44016,R,ugm-3
09-01-2022,11:00,6.763,R,ugm-3 (Ref.eq),22.20503,R,ugm-3,23.11257,R,ugm-3,57.15980,R,ugm-3
09-01-2022,12:00,5.797,R,ugm-3 (Ref.eq),22.23807,R,ugm-3,22.40489,R,ugm-3,56.50279,R,ugm-3
09-01-2022,13:00,12.561,R,ugm-3 (Ref.eq),22.93198,R,ugm-3,31.80252,R,ugm-3,66.96439,R,ugm-3
09-01-2022,14:00,17.392,R,ugm-3 (Ref.eq),31.55625,R,ugm-3,33.99327,R,ugm-3,82.37884,R,ugm-3
09-01-2022,15:00,16.425,R,ugm-3 (Ref.eq),35.45534,R,ugm-3,41.10438,R,ugm-3,95.46848,R,ugm-3
09-01-2022,16:00,12.561,R,ugm-3 (Ref.eq),55.41343,R,ugm-3,62.75990,R,ugm-3,147.72598,R,ugm-3
09-01-2022,17:00,26.087,R,ugm-3 (Ref.eq),80.79060,R,ugm-3,75.85359,R,ugm-3,199.73078,R,ugm-3
09-01-2022,18:00,28.986,R,ugm-3 (Ref.eq),57.95776,R,ugm-3,65.93414,R,ugm-3,154.80146,R,ugm-3
09-01-2022,19:00,21.256,R,ugm-3 (Ref.eq),64.89683,R,ugm-3,67.92917,R,ugm-3,167.43626,R,ugm-3
09-01-2022,20:00,24.155,R,ugm-3 (Ref.eq),72.03416,R,ugm-3,66.48679,R,ugm-3,176.93762,R,ugm-3
09-01-2022,21:00,22.223,R,ugm-3 (Ref.eq),46.35960,R,ugm-3,67.84844,R,ugm-3,138.93217,R,ugm-3
09-01-2022,22:00,34.783,R,ugm-3 (Ref.eq),110.16600,R,ugm-3,74.62939,R,ugm-3,243.54824,R,ugm-3
09-01-2022,23:00,25.121,R,ugm-3 (Ref.eq),109.04253,R,ugm-3,68.21522,R,ugm-3,235.41143,R,ugm-3
09-01-2022,24:00,27.054,R,ugm-3 (Ref.eq),74.87587,R,ugm-3,64.65651,R,ugm-3,179.46458,R,ugm-3
10-01-2022,01:00,25.121,R,ugm-3 (Ref.eq),60.46798,R,ugm-3,60.31543,R,ugm-3,153.03170,R,ugm-3
10-01-2022,02:00,22.223,R,ugm-3 (Ref.eq),26.70301,R,ugm-3,53.29162,R,ugm-3,94.23566,R,ugm-3
10-01-2022,03:00,24.155,R,ugm-3 (Ref.eq),24.62856,R,ugm-3,41.21648,R,ugm-3,78.97975,R,ugm-3
10-01-2022,04:00,13.527,R,ugm-3 (Ref.eq),7.84539,R,ugm-3,38.64924,R,ugm-3,50.67867,R,ugm-3
10-01-2022,05:00,16.425,R,ugm-3 (Ref.eq),18.90176,R,ugm-3,40.02373,R,ugm-3,69.00602,R,ugm-3
10-01-2022,06:00,20.290,R,ugm-3 (Ref.eq),38.30006,R,ugm-3,38.63178,R,ugm-3,97.35773,R,ugm-3
10-01-2022,07:00,28.986,R,ugm-3 (Ref.eq),80.47317,R,ugm-3,52.33947,R,ugm-3,175.72994,R,ugm-3
10-01-2022,08:00,20.290,R,ugm-3 (Ref.eq),86.43169,R,ugm-3,53.17692,R,ugm-3,185.70366,R,ugm-3
10-01-2022,09:00,28.020,R,ugm-3 (Ref.eq),117.81324,R,ugm-3,61.15508,R,ugm-3,241.79953,R,ugm-3
10-01-2022,10:00,25.121,R,ugm-3 (Ref.eq),73.19053,R,ugm-3,54.84863,R,ugm-3,167.07254,R,ugm-3
10-01-2022,11:00,27.054,R,ugm-3 (Ref.eq),49.98539,R,ugm-3,43.69967,R,ugm-3,120.34286,R,ugm-3
10-01-2022,12:00,27.054,R,ugm-3 (Ref.eq),32.20913,R,ugm-3,41.08567,R,ugm-3,90.47231,R,ugm-3
10-01-2022,13:00,25.121,R,ugm-3 (Ref.eq),25.45613,R,ugm-3,35.89731,R,ugm-3,74.92951,R,ugm-3
10-01-2022,14:00,22.223,R,ugm-3 (Ref.eq),28.99815,R,ugm-3,35.78224,R,ugm-3,80.24545,R,ugm-3
10-01-2022,15:00,20.290,R,ugm-3 (Ref.eq),30.78570,R,ugm-3,35.42088,R,ugm-3,82.62497,R,ugm-3
10-01-2022,16:00,15.459,R,ugm-3 (Ref.eq),41.08071,R,ugm-3,38.01341,R,ugm-3,101.00295,R,ugm-3
10-01-2022,17:00,21.256,R,ugm-3 (Ref.eq),24.19823,R,ugm-3,34.38337,R,ugm-3,71.48680,R,ugm-3
10-01-2022,18:00,22.223,R,ugm-3 (Ref.eq),26.11819,R,ugm-3,41.41318,R,ugm-3,81.46052,R,ugm-3
10-01-2022,19:00,21.256,R,ugm-3 (Ref.eq),29.82572,R,ugm-3,41.29748,R,ugm-3,87.02961,R,ugm-3
10-01-2022,20:00,21.256,R,ugm-3 (Ref.eq),25.91958,R,ugm-3,39.28758,R,ugm-3,79.03038,R,ugm-3
10-01-2022,21:00,18.358,R,ugm-3 (Ref.eq),15.32665,R,ugm-3,30.62085,R,ugm-3,54.12138,R,ugm-3
10-01-2022,22:00,15.459,R,ugm-3 (Ref.eq),11.48671,R,ugm-3,22.13031,R,ugm-3,39.74301,R,ugm-3
10-01-2022,23:00,9.662,R,ugm-3 (Ref.eq),7.74608,R,ugm-3,16.87957,R,ugm-3,28.75673,R,ugm-3
10-01-2022,24:00,8.696,R,ugm-3 (Ref.eq),4.43579,R,ugm-3,11.47528,R,ugm-3,18.27672,R,ugm-3
11-01-2022,01:00,5.797,R,ugm-3 (Ref.eq),2.69723,R,ugm-3,7.36015,R,ugm-3,11.49584,R,ugm-3
11-01-2022,02:00,3.865,R,ugm-3 (Ref.eq),2.60879,R,ugm-3,7.09001,R,ugm-3,11.09010,R,ugm-3
11-01-2022,03:00,2.899,R,ugm-3 (Ref.eq),1.89027,R,ugm-3,5.62207,R,ugm-3,8.52044,R,ugm-3
11-01-2022,04:00,5.797,R,ugm-3 (Ref.eq),0.79590,R,ugm-3,5.72785,R,ugm-3,6.94822,R,ugm-3
11-01-2022,05:00,6.763,R,ugm-3 (Ref.eq),1.98976,R,ugm-3,6.12884,R,ugm-3,9.17976,R,ugm-3
11-01-2022,06:00,5.797,R,ugm-3 (Ref.eq),8.52279,R,ugm-3,15.33338,R,ugm-3,28.40148,R,ugm-3
11-01-2022,07:00,7.730,R,ugm-3 (Ref.eq),22.91537,R,ugm-3,19.02926,R,ugm-3,54.16567,R,ugm-3
11-01-2022,08:00,9.662,R,ugm-3 (Ref.eq),26.26480,R,ugm-3,39.04914,R,ugm-3,79.32127,R,ugm-3
11-01-2022,09:00,7.730,R,ugm-3 (Ref.eq),11.77273,R,ugm-3,42.75832,R,ugm-3,60.80959,R,ugm-3
11-01-2022,10:00,12.561,R,ugm-3 (Ref.eq),16.18336,R,ugm-3,42.18292,R,ugm-3,66.99705,R,ugm-3
11-01-2022,11:00,16.425,R,ugm-3 (Ref.eq),13.96146,R,ugm-3,34.02632,R,ugm-3,55.43359,R,ugm-3
11-01-2022,12:00,19.324,R,ugm-3 (Ref.eq),12.40282,R,ugm-3,33.22104,R,ugm-3,52.23843,R,ugm-3
11-01-2022,13:00,23.189,R,ugm-3 (Ref.eq),13.99463,R,ugm-3,33.31615,R,ugm-3,54.77428,R,ugm-3
11-01-2022,14:00,26.087,R,ugm-3 (Ref.eq),14.92318,R,ugm-3,29.25511,R,ugm-3,52.13700,R,ugm-3
11-01-2022,15:00,27.054,R,ugm-3 (Ref.eq),15.48695,R,ugm-3,35.74463,R,ugm-3,59.49095,R,ugm-3
11-01-2022,16:00,27.054,R,ugm-3 (Ref.eq),13.89514,R,ugm-3,46.30007,R,ugm-3,67.60566,R,ugm-3
11-01-2022,17:00,28.020,R,ugm-3 (Ref.eq),18.27260,R,ugm-3,44.60903,R,ugm-3,72.62663,R,ugm-3
11-01-2022,18:00,27.054,R,ugm-3 (Ref.eq),9.41818,R,ugm-3,44.18775,R,ugm-3,58.62876,R,ugm-3
11-01-2022,19:00,27.054,R,ugm-3 (Ref.eq),5.73713,R,ugm-3,46.68750,R,ugm-3,55.48431,R,ugm-3